Regional Weather Roundup
Issued by NWS Grand Forks, ND

Home | Current Version | Previous Version | Text Only | Print | Product List | Glossary On
Versions: 1 2 3 4 5 6 7 8 9 10 11 12 13 14 15 16 17 18 19 20 21 22 23 24 25 26 27 28 29 30 31 32 33 34 35 36 37 38 39 40 41 42 43 44 45 46 47 48 49 50
668
ASUS43 KFGF 171231
RWRFGF
PRAIRIE TO PINES  WEATHER ROUNDUP
NATIONAL WEATHER SERVICE EASTERN NORTH DAKOTA/GRAND FORKS ND
700 AM CDT THU AUG 17 2017

 **SATELLITE DATA USED TO AUGMENT SKY COVER AT AUTOMATED STATIONS**
 *****  WEATHER ACROSS EASTERN NORTH DAKOTA  *****

CITY           SKY/WX    TMP DP  RH WIND       PRES   REMARKS
GRAND FORKS    FOG       60  60 100 NW9       29.83R VSB 1/4
6HR MIN TEMP:  59; 6HR MAX TEMP:  61;

GRAND FRKS AFB FOG       59  59 100 N8        29.84S VSB 3/8
DEVILS LAKE    CLOUDY    55  54  94 CALM      29.88R FOG
6HR MIN TEMP:  53; 6HR MAX TEMP:  59;

FARGO          CLOUDY    61  61 100 N15G25    29.79R
WAHPETON ARPT  CLOUDY    61  57  88 NW16G24   29.79R
$$

 ***** WEATHER ACROSS CENTRAL AND WESTERN NORTH DAKOTA  *****

CITY           SKY/WX    TMP DP  RH WIND       PRES   REMARKS
BISMARCK       FAIR      57  54  89 CALM      29.91R
6HR MIN TEMP:  53; 6HR MAX TEMP:  59;

MINOT          FAIR      59  55  87 CALM      29.86R
6HR MIN TEMP:  59; 6HR MAX TEMP:  62;

JAMESTOWN      FAIR      55  53  93 NW6       29.86R
6HR MIN TEMP:  55; 6HR MAX TEMP:  57;

MINOT AFB      CLOUDY    58  54  86 SE3       29.84F
GARRISON         N/A     57  55  93 SE3       29.87S
WILLISTON      FAIR      64  53  67 S5        29.82S
6HR MIN TEMP:  60; 6HR MAX TEMP:  72;

DICKINSON      FAIR      56  50  80 S10       29.86S
6HR MIN TEMP:  55; 6HR MAX TEMP:  59;

HETTINGER      FAIR      56  47  71 SE7       29.91F
6HR MIN TEMP:  55; 6HR MAX TEMP:  60;

$$

 *****  OTHER AIRPORT OBSERVATIONS IN OUR AREA  *****

CITY           SKY/WX    TMP DP  RH WIND       PRES   REMARKS
WALHALLA       FAIR      54  54 100 SE5       29.84S FOG
GRAFTON AIRPOR FOG       57  57 100 N6        29.86S VSB<1/4
VALLEY CITY AR   N/A     55  55 100 NW7       29.87S FOG
CANDO          FAIR      50  50 100 CALM      29.89S
CAVALIER APRT  FOG       57  57 100 CALM      29.84S VSB<1/4
GWINNER        MOSUNNY   59  59 100 NW7       29.83S
SHEYENNE NWR     N/A     61  61 100 N9        29.95S
ROLLA          FAIR      52  52 100 W6        29.89S
 ***** THE ABOVE OBSERVATIONS ARE NON NWS ARE NOT QUALITY
       CONTROLLED AND MAY MIS-REPORT RAIN FOR SNOW...
$$

  *****  WEATHER ACROSS NORTHERN MINNESOTA  *****

CITY           SKY/WX    TMP DP  RH WIND       PRES   REMARKS
FLAG ISLAND    CLOUDY    61  57  88 NE3       29.82S
WARROAD        FAIR      61  55  82 N7        29.82S
ROSEAU           N/A     59  54  82 N6        29.82S HAZE
HALLOCK        MOCLDY    54  52  94 N5        29.83F FOG
THF RVR FALLS  CLOUDY    63  61  94 N12       29.82R
BAUDETTE       CLOUDY    60  59  96 N7        29.79S
6HR MIN TEMP:  59; 6HR MAX TEMP:  62; 6HR PCP:  0.33;

WASKISH        CLOUDY    61  59  94 N10       29.77S
CROOKSTON      CLOUDY    63  61  94 N10       29.82R
STEPHEN NDAWN    N/A     55  55 100 N5          N/A
GREENBUSH NDAW   N/A     59  59 100 N6          N/A
$$
  *****  WEATHER ACROSS CENTRAL AND WEST MINNESOTA  *****

CITY           SKY/WX    TMP DP  RH WIND       PRES   REMARKS
FOSSTON        CLOUDY    59  57  94 N10       29.79R
BEMIDJI        DRIZZLE   60  59  98 N9        29.75S
PARK RAPIDS    LGT RAIN  63  61  93 N14G20    29.72R
6HR MIN TEMP:  63; 6HR MAX TEMP:  65; 6HR PCP:  0.33;

ELBOW LAKE     CLOUDY    62  62 100 W14G22    29.74R FOG
6HR MIN TEMP:  62; 6HR MAX TEMP:  65; 6HR PCP:  0.26;

WADENA         LGT RAIN  63  63 100 N9        29.72R
DETROIT LAKES  DRIZZLE   61  61 100 N12G20    29.77R
MOORHEAD       CLOUDY    61  61 100 N15       29.80R
FERGUS FALLS   CLOUDY    63  63 100 N15G21    29.75R FOG
MORRIS MN      CLOUDY    63  63 100 NW18      29.73R FOG
STAPLES        DRIZZLE   61  61 100 N10       29.70R
$$
  *****  WEATHER ELSEWHERE ACROSS MINNESOTA  *****

CITY           SKY/WX    TMP DP  RH WIND       PRES   REMARKS
DULUTH         DRIZZLE   59  59 100 E17G26    29.63S FOG
6HR MIN TEMP:  59; 6HR MAX TEMP:  60; 6HR PCP:  0.36;

INTRNTL FALLS  LGT RAIN  59  57  93 NE9       29.77S FOG
6HR MIN TEMP:  59; 6HR MAX TEMP:  61; 6HR PCP:  0.55;

ELY            RAIN      59  57  94 NE7       29.73R
CLOQUET        CLOUDY    61  57  88 NE8       29.63R FOG
WHEATON        CLOUDY    63  59  88 NW14G20   29.79R
BRAINERD       LGT RAIN  62  61  96 N10       29.66R FOG
6HR MIN TEMP:  61; 6HR MAX TEMP:  62; 6HR PCP:  0.48;

HIBBING        RAIN      58  57  97 NE7       29.70R FOG
6HR MIN TEMP:  57; 6HR MAX TEMP:  58; 6HR PCP:  1.34;

ALEXANDRIA     CLOUDY    64  64 100 NW12      29.72R
6HR MIN TEMP:  64; 6HR MAX TEMP:  65; 6HR PCP:  0.18;

SAINT CLOUD    LGT RAIN  62  62 100 N17G24    29.58R FOG
6HR MIN TEMP:  62; 6HR MAX TEMP:  66; 6HR PCP:  0.32;

MINNEAPOLIS    MOCLDY    67  64  90 NW7       29.51R
6HR MIN TEMP:  66; 6HR MAX TEMP:  72; 6HR PCP:  0.08;

$$

  *****  WEATHER ACROSS SOUTH DAKOTA  *****

CITY           SKY/WX    TMP DP  RH WIND       PRES   REMARKS
SIOUX FALLS    FAIR      61  59  93 NW10      29.83R
6HR MIN TEMP:  61; 6HR MAX TEMP:  67;

BROOKINGS      CLOUDY    60  58  92 NW17G25   29.81R
WATERTOWN      CLOUDY    61  59  93 NW18G25   29.81R
6HR MIN TEMP:  60; 6HR MAX TEMP:  64;

HURON          FAIR      56  54  93 NW8       29.88R
6HR MIN TEMP:  55; 6HR MAX TEMP:  63;

SISSETON         N/A     62  60  93 NW17      29.79R
ABERDEEN       FAIR      57  55  93 NW7       29.86R
6HR MIN TEMP:  57; 6HR MAX TEMP:  61;

MITCHELL       FAIR      57  55  93 W8        29.89R
PIERRE         FAIR      53  49  86 SW7       29.91R
6HR MIN TEMP:  51; 6HR MAX TEMP:  60;

MOBRIDGE       FAIR      54  53  97 N3        29.89R FOG
RAPID CITY     FAIR      52  48  86 CALM      29.94F
6HR MIN TEMP:  51; 6HR MAX TEMP:  59;

$$

  *****  SOME WEATHER IN NEARBY STATES *****

CITY           SKY/WX    TMP DP  RH WIND       PRES   REMARKS
GLASGOW MT     FAIR      53  43  68 N7        29.84R
6HR MIN TEMP:  51; 6HR MAX TEMP:  64;

GREAT FALLS MT FAIR      59  31  34 SW13      29.99R
6HR MIN TEMP:  55; 6HR MAX TEMP:  62;

CHEYENNE WY    FAIR      53  42  66 W8        30.17S
6HR MIN TEMP:  52; 6HR MAX TEMP:  57;

SCOTTSBLUFF NE FAIR      53  49  86 E7        30.06S
6HR MIN TEMP:  53; 6HR MAX TEMP:  58;

OMAHA NE       FAIR      65  59  81 W12       29.89R
6HR MIN TEMP:  65; 6HR MAX TEMP:  68;

DES MOINES IA  MOCLDY    67  63  87 W15       29.80R
6HR MIN TEMP:  67; 6HR MAX TEMP:  69;

DAVENPORT IA   MOCLDY    72  70  93 SW8       29.78R
6HR MIN TEMP:  70; 6HR MAX TEMP:  74;

CHICAGO IL     LGT RAIN  74  69  85 S12G20    29.78R
6HR MIN TEMP:  74; 6HR MAX TEMP:  77; 6HR PCP: TRACE;

EAU CLAIRE WI  MOCLDY    67  64  90 S10       29.55F
6HR MIN TEMP:  67; 6HR MAX TEMP:  70; 6HR PCP:  0.25;

LA CROSSE WI   CLOUDY    71  65  81 S14       29.60F
6HR MIN TEMP:  71; 6HR MAX TEMP:  77;

$$

  *****  SOME NATIONAL WEATHER *****

CITY           SKY/WX    TMP DP  RH WIND       PRES   REMARKS
LA GUARDIA NY  PTSUNNY   71  57  61 NE9G21    30.07R
6HR MIN TEMP:  70; 6HR MAX TEMP:  75;

RALEIGH NC     FAIR      79  74  84 CALM      30.05R
6HR MIN TEMP:  75; 6HR MAX TEMP:  79;

ATLANTA GA     FAIR      77  74  90 W7        30.10R
6HR MIN TEMP:  76; 6HR MAX TEMP:  79;

NEW ORLEANS LA FAIR      77  76  96 CALM      30.08R
6HR MIN TEMP:  76; 6HR MAX TEMP:  80;

OKLAHOMA CITY  FAIR      67  66  97 CALM      29.97R
6HR MIN TEMP:  67; 6HR MAX TEMP:  71;

ALBUQUERQUE NM FAIR      63  44  50 SE6       30.20R
6HR MIN TEMP:  63; 6HR MAX TEMP:  74;

SALT LAKE CITY FAIR      69  44  40 SE8       30.08R
6HR MIN TEMP:  68; 6HR MAX TEMP:  73;

LOS ANGELES CA FAIR      66  62  87 CALM      29.97S
6HR MIN TEMP:  65; 6HR MAX TEMP:  67;

BOISE ID       FAIR



USA.gov is the U.S. government's official web portal to all federal, state and local government web resources and services.